Time,TemperatureF,DewpointF,PressureIn,WindDirection,WindDirectionDegrees,WindSpeedMPH,WindSpeedGustMPH,Humidity,HourlyPrecipIn,Conditions,Clouds,dailyrainin,SoftwareType,DateUTC
2013-08-09 00:01:00,68.2,66.1,29.94,SSE,158,2.8,2.8,93,0.00,RA,,0.00,WeatherDisplay:10.37,2013-08-09 04:01:00,
2013-08-09 00:02:00,68.2,66.1,29.94,SE,135,5.2,5.8,93,0.00,RA,,0.00,WeatherDisplay:10.37,2013-08-09 04:02:00,
2013-08-09 00:04:00,68.2,66.1,29.94,SSE,158,3.7,5.8,93,0.00,RA,,0.00,WeatherDisplay:10.37,2013-08-09 04:04:00,
2013-08-09 00:05:00,68.2,66.1,29.94,SSE,158,3.7,3.7,93,0.00,RA,,0.00,WeatherDisplay:10.37,2013-08-09 04:05:00,
2013-08-09 00:10:00,68.2,66.1,29.94,SE,146,5.0,6.0,93,0.00,CLR,CLR,0.00,WeatherDisplay:10.37,2013-08-09 04:10:00,
2013-08-09 00:15:00,68.4,66.3,29.93,SE,135,5.2,5.2,93,0.00,CLR,,0.00,WeatherDisplay:10.37,2013-08-09 04:15:00,
2013-08-09 00:20:00,68.4,66.3,29.93,SE,135,5.2,5.8,93,0.00,CLR,,0.00,WeatherDisplay:10.37,2013-08-09 04:20:00,
2013-08-09 00:25:00,68.4,66.6,29.93,SSE,158,6.1,6.1,94,0.00,CLR,,0.00,WeatherDisplay:10.37,2013-08-09 04:25:00,
2013-08-09 00:31:00,68.4,66.6,29.93,SE,135,3.4,3.5,94,0.00,CLR,,0.00,WeatherDisplay:10.37,2013-08-09 04:31:00,
2013-08-09 00:36:00,68.4,66.6,29.93,SSE,158,3.4,3.5,94,0.00,CLR,,0.00,WeatherDisplay:10.37,2013-08-09 04:36:00,
2013-08-09 00:41:00,68.5,66.7,29.93,SE,135,4.3,4.6,94,0.00,CLR,,0.00,WeatherDisplay:10.37,2013-08-09 04:41:00,
2013-08-09 00:46:00,68.5,66.7,29.93,SSE,158,4.3,4.6,94,0.00,CLR,,0.00,WeatherDisplay:10.37,2013-08-09 04:46:00,
2013-08-09 00:52:00,68.5,66.7,29.93,SSE,158,3.7,3.7,94,0.00,CLR,,0.00,WeatherDisplay:10.37,2013-08-09 04:52:00,
2013-08-09 00:57:00,68.5,66.7,29.93,SSE,158,2.8,2.8,94,0.00,CLR,,0.00,WeatherDisplay:10.37,2013-08-09 04:57:00,
2013-08-09 01:03:00,68.5,66.7,29.93,South,180,2.4,5.8,94,0.00,CLR,,0.00,WeatherDisplay:10.37,2013-08-09 05:03:00,
2013-08-09 01:08:00,68.5,66.4,29.93,SE,135,5.2,5.8,93,0.00,CLR,,0.00,WeatherDisplay:10.37,2013-08-09 05:08:00,
2013-08-09 01:13:00,68.7,66.9,29.93,South,180,2.5,2.5,94,0.00,CLR,,0.00,WeatherDisplay:10.37,2013-08-09 05:13:00,
2013-08-09 01:18:00,68.7,66.6,29.93,SE,135,4.6,5.8,93,0.00,CLR,,0.00,WeatherDisplay:10.37,2013-08-09 05:18:00,
2013-08-09 01:23:00,68.7,66.6,29.93,SE,135,3.1,4.6,93,0.00,CLR,,0.00,WeatherDisplay:10.37,2013-08-09 05:23:00,
2013-08-09 01:28:00,68.5,66.4,29.93,SE,135,3.7,3.7,93,0.00,CLR,,0.00,WeatherDisplay:10.37,2013-08-09 05:28:00,
2013-08-09 01:33:00,68.5,66.4,29.93,South,180,6.1,6.1,93,0.00,CLR,,0.00,WeatherDisplay:10.37,2013-08-09 05:33:00,
2013-08-09 01:38:00,68.5,66.4,29.93,SE,135,3.1,3.5,93,0.00,CLR,,0.00,WeatherDisplay:10.37,2013-08-09 05:38:00,
2013-08-09 01:43:00,68.5,66.4,29.92,SE,135,3.7,3.7,93,0.00,CLR,,0.00,WeatherDisplay:10.37,2013-08-09 05:43:00,
2013-08-09 01:48:00,68.5,66.4,29.92,SSE,158,4.9,4.9,93,0.00,CLR,,0.00,WeatherDisplay:10.37,2013-08-09 05:48:00,
2013-08-09 01:53:00,68.5,66.4,29.92,SSE,158,4.9,4.9,93,0.00,CLR,,0.00,WeatherDisplay:10.37,2013-08-09 05:53:00,
2013-08-09 01:58:00,68.4,66.3,29.92,SE,135,2.8,2.8,93,0.00,CLR,,0.00,WeatherDisplay:10.37,2013-08-09 05:58:00,
2013-08-09 02:03:00,68.4,66.3,29.92,SSE,158,3.1,3.5,93,0.00,CLR,,0.00,WeatherDisplay:10.37,2013-08-09 06:03:00,
2013-08-09 02:08:00,68.4,66.3,29.92,SSE,158,4.0,4.0,93,0.00,CLR,,0.00,WeatherDisplay:10.37,2013-08-09 06:08:00,
2013-08-09 02:13:00,68.4,66.3,29.92,ESE,112,2.8,2.8,93,0.00,CLR,,0.00,WeatherDisplay:10.37,2013-08-09 06:13:00,
2013-08-09 02:18:00,68.4,66.3,29.92,SSE,158,2.8,2.8,93,0.00,CLR,,0.00,WeatherDisplay:10.37,2013-08-09 06:18:00,
2013-08-09 02:23:00,68.4,66.3,29.92,SSE,158,1.2,2.3,93,0.00,CLR,,0.00,WeatherDisplay:10.37,2013-08-09 06:23:00,
2013-08-09 02:28:00,68.4,66.3,29.92,SE,135,0.6,1.1,93,0.00,CLR,,0.00,WeatherDisplay:10.37,2013-08-09 06:28:00,
2013-08-09 02:33:00,68.4,66.3,29.91,SSE,158,1.5,2.3,93,0.00,CLR,,0.00,WeatherDisplay:10.37,2013-08-09 06:33:00,
2013-08-09 02:38:00,68.4,66.3,29.90,SSE,158,2.5,2.5,93,0.00,CLR,,0.00,WeatherDisplay:10.37,2013-08-09 06:38:00,
2013-08-09 02:43:00,68.4,66.3,29.89,SSE,158,0.6,1.1,93,0.00,CLR,,0.00,WeatherDisplay:10.37,2013-08-09 06:43:00,
2013-08-09 02:48:00,68.4,66.3,29.88,South,180,1.2,1.2,93,0.00,CLR,,0.00,WeatherDisplay:10.37,2013-08-09 06:48:00,
2013-08-09 02:53:00,68.4,66.3,29.88,SSW,202,1.5,3.5,93,0.00,CLR,,0.00,WeatherDisplay:10.37,2013-08-09 06:53:00,
2013-08-09 02:58:00,68.4,66.3,29.88,SSE,158,1.2,2.3,93,0.00,CLR,,0.00,WeatherDisplay:10.37,2013-08-09 06:58:00,
2013-08-09 03:03:00,68.4,66.3,29.88,SSE,158,0.6,1.1,93,0.00,CLR,,0.00,WeatherDisplay:10.37,2013-08-09 07:03:00,
2013-08-09 03:08:00,68.4,66.3,29.88,SSE,158,0.6,2.3,93,0.00,CLR,,0.00,WeatherDisplay:10.37,2013-08-09 07:08:00,
2013-08-09 03:13:00,68.2,66.1,29.87,South,180,1.5,1.5,93,0.01,RA,,0.01,WeatherDisplay:10.37,2013-08-09 07:13:00,
2013-08-09 03:18:00,68.4,66.3,29.89,SSE,158,0.3,0.0,93,0.01,RA,,0.01,WeatherDisplay:10.37,2013-08-09 07:18:00,
2013-08-09 03:23:00,68.4,66.3,29.90,SSE,158,0.3,0.3,93,0.01,,,0.01,WeatherDisplay:10.37,2013-08-09 07:23:00,
2013-08-09 03:28:00,68.4,66.3,29.90,SSE,158,0.0,0.0,93,0.01,CLR,,0.01,WeatherDisplay:10.37,2013-08-09 07:28:00,
2013-08-09 03:33:00,68.4,66.3,29.89,SSE,158,0.0,1.1,93,0.01,CLR,,0.01,WeatherDisplay:10.37,2013-08-09 07:33:00,
2013-08-09 03:38:00,68.4,66.3,29.89,WSW,248,0.0,0.0,93,0.01,CLR,,0.01,WeatherDisplay:10.37,2013-08-09 07:38:00,
2013-08-09 03:43:00,68.4,66.3,29.88,SSW,202,0.6,1.1,93,0.01,CLR,,0.01,WeatherDisplay:10.37,2013-08-09 07:43:00,
2013-08-09 03:48:00,68.4,66.3,29.88,SSE,158,0.0,0.0,93,0.02,RA,,0.02,WeatherDisplay:10.37,2013-08-09 07:48:00,
2013-08-09 03:53:00,68.4,66.3,29.90,South,180,0.0,0.0,93,0.02,RA,,0.02,WeatherDisplay:10.37,2013-08-09 07:53:00,
2013-08-09 03:58:00,68.4,66.3,29.90,West,270,0.0,0.0,93,0.02,CLR,,0.02,WeatherDisplay:10.37,2013-08-09 07:58:00,
2013-08-09 04:03:00,68.4,66.3,29.90,West,270,0.0,0.0,93,0.02,CLR,,0.02,WeatherDisplay:10.37,2013-08-09 08:03:00,
2013-08-09 04:08:00,68.4,66.3,29.90,SSW,202,0.0,0.0,93,0.02,CLR,,0.02,WeatherDisplay:10.37,2013-08-09 08:08:00,
2013-08-09 04:13:00,68.4,66.3,29.89,SSW,202,0.6,0.6,93,0.01,CLR,,0.02,WeatherDisplay:10.37,2013-08-09 08:13:00,
2013-08-09 04:18:00,68.4,66.3,29.88,SSW,202,0.0,0.0,93,0.01,CLR,,0.02,WeatherDisplay:10.37,2013-08-09 08:18:00,
2013-08-09 04:23:00,68.4,66.3,29.88,SSW,202,0.0,0.0,93,0.01,CLR,,0.02,WeatherDisplay:10.37,2013-08-09 08:23:00,
2013-08-09 04:28:00,68.2,66.1,29.89,SSW,202,0.0,0.0,93,0.01,CLR,,0.02,WeatherDisplay:10.37,2013-08-09 08:28:00,
2013-08-09 04:33:00,68.4,66.3,29.90,SSW,202,0.0,0.0,93,0.01,CLR,,0.02,WeatherDisplay:10.37,2013-08-09 08:33:00,
2013-08-09 04:38:00,68.4,66.3,29.90,South,180,0.6,1.1,93,0.01,CLR,,0.02,WeatherDisplay:10.37,2013-08-09 08:38:00,
2013-08-09 04:43:00,68.4,66.3,29.90,SSE,158,0.6,1.1,93,0.01,CLR,,0.02,WeatherDisplay:10.37,2013-08-09 08:43:00,
2013-08-09 04:48:00,68.4,66.3,29.90,SSE,158,0.6,1.1,93,0.00,CLR,,0.02,WeatherDisplay:10.37,2013-08-09 08:48:00,
2013-08-09 04:53:00,68.4,66.3,29.89,SSE,158,1.2,1.2,93,0.00,CLR,,0.02,WeatherDisplay:10.37,2013-08-09 08:53:00,
2013-08-09 04:58:00,68.4,66.3,29.88,SSE,158,0.0,0.0,93,0.00,CLR,,0.02,WeatherDisplay:10.37,2013-08-09 08:58:00,
2013-08-09 05:03:00,68.4,66.3,29.89,SSE,158,0.6,1.1,93,0.00,CLR,,0.02,WeatherDisplay:10.37,2013-08-09 09:03:00,
2013-08-09 05:08:00,68.4,66.3,29.90,South,180,0.9,1.1,93,0.00,CLR,,0.02,WeatherDisplay:10.37,2013-08-09 09:08:00,
2013-08-09 05:13:00,68.4,66.3,29.89,South,180,0.0,0.0,93,0.00,CLR,,0.02,WeatherDisplay:10.37,2013-08-09 09:13:00,
2013-08-09 05:18:00,68.4,66.3,29.89,WSW,248,0.3,1.1,93,0.00,CLR,,0.02,WeatherDisplay:10.37,2013-08-09 09:18:00,
2013-08-09 05:23:00,68.4,66.3,29.88,SW,225,0.0,0.0,93,0.00,CLR,,0.02,WeatherDisplay:10.37,2013-08-09 09:23:00,
2013-08-09 05:28:00,68.4,66.3,29.87,SSE,158,0.6,1.1,93,0.00,CLR,,0.02,WeatherDisplay:10.37,2013-08-09 09:28:00,
2013-08-09 05:33:00,68.4,66.3,29.88,South,180,1.2,1.2,93,0.00,CLR,,0.02,WeatherDisplay:10.37,2013-08-09 09:33:00,
2013-08-09 05:38:00,68.4,66.3,29.89,WSW,248,1.2,1.2,93,0.00,CLR,,0.02,WeatherDisplay:10.37,2013-08-09 09:38:00,
2013-08-09 05:43:00,68.5,66.4,29.89,SE,135,1.5,1.5,93,0.00,CLR,,0.02,WeatherDisplay:10.37,2013-08-09 09:43:00,
2013-08-09 05:48:00,68.4,66.6,29.90,South,180,0.0,0.0,94,0.00,CLR,,0.02,WeatherDisplay:10.37,2013-08-09 09:48:00,
2013-08-09 05:53:00,68.5,66.7,29.89,South,180,0.0,0.0,94,0.00,CLR,,0.02,WeatherDisplay:10.37,2013-08-09 09:53:00,
2013-08-09 05:58:00,68.4,66.6,29.89,South,180,0.0,0.0,94,0.00,CLR,,0.02,WeatherDisplay:10.37,2013-08-09 09:58:00,
2013-08-09 06:03:00,68.5,66.7,29.89,SSW,202,0.0,0.0,94,0.00,CLR,,0.02,WeatherDisplay:10.37,2013-08-09 10:03:00,
2013-08-09 06:08:00,68.5,66.7,29.89,West,270,0.0,1.1,94,0.00,CLR,,0.02,WeatherDisplay:10.37,2013-08-09 10:08:00,
2013-08-09 06:14:00,68.5,66.7,29.90,West,270,0.0,0.0,94,0.00,CLR,,0.02,WeatherDisplay:10.37,2013-08-09 10:14:00,
2013-08-09 06:19:00,68.5,66.7,29.90,WNW,292,0.3,0.0,94,0.00,CLR,,0.02,WeatherDisplay:10.37,2013-08-09 10:19:00,
2013-08-09 06:24:00,68.5,66.7,29.91,West,270,0.6,1.1,94,0.00,CLR,,0.02,WeatherDisplay:10.37,2013-08-09 10:24:00,
2013-08-09 06:29:00,68.5,66.7,29.91,WSW,248,2.1,2.3,94,0.00,CLR,,0.02,WeatherDisplay:10.37,2013-08-09 10:29:00,
2013-08-09 06:34:00,68.5,66.7,29.90,WSW,248,0.0,0.0,94,0.00,CLR,,0.02,WeatherDisplay:10.37,2013-08-09 10:34:00,
2013-08-09 06:39:00,68.7,66.9,29.90,West,270,0.9,1.1,94,0.00,CLR,,0.02,WeatherDisplay:10.37,2013-08-09 10:39:00,
2013-08-09 06:44:00,68.7,66.9,29.90,West,270,0.0,0.0,94,0.00,CLR,,0.02,WeatherDisplay:10.37,2013-08-09 10:44:00,
2013-08-09 06:49:00,68.7,66.9,29.91,West,270,0.0,0.0,94,0.00,CLR,,0.02,WeatherDisplay:10.37,2013-08-09 10:49:00,
2013-08-09 06:54:00,68.7,66.9,29.91,WNW,292,0.3,1.1,94,0.00,CLR,,0.02,WeatherDisplay:10.37,2013-08-09 10:54:00,
2013-08-09 06:59:00,68.7,66.9,29.91,WNW,292,0.0,0.0,94,0.00,CLR,,0.02,WeatherDisplay:10.37,2013-08-09 10:59:00,
2013-08-09 07:04:00,68.7,66.9,29.91,WNW,292,0.0,0.0,94,0.00,CLR,,0.02,WeatherDisplay:10.37,2013-08-09 11:04:00,
2013-08-09 07:09:00,68.7,66.9,29.91,West,270,1.8,1.8,94,0.00,CLR,,0.02,WeatherDisplay:10.37,2013-08-09 11:09:00,
2013-08-09 07:14:00,68.7,66.9,29.91,West,270,1.5,1.5,94,0.00,CLR,,0.02,WeatherDisplay:10.37,2013-08-09 11:14:00,
2013-08-09 07:19:00,68.7,66.9,29.91,SW,225,0.0,0.0,94,0.00,CLR,,0.02,WeatherDisplay:10.37,2013-08-09 11:19:00,
2013-08-09 07:24:00,68.9,67.1,29.91,SW,225,0.0,0.0,94,0.00,CLR,,0.02,WeatherDisplay:10.37,2013-08-09 11:24:00,
2013-08-09 07:29:00,68.9,67.1,29.91,SE,135,0.6,0.6,94,0.00,CLR,,0.02,WeatherDisplay:10.37,2013-08-09 11:29:00,
2013-08-09 07:34:00,68.9,67.1,29.90,NNW,338,0.0,0.0,94,0.00,CLR,,0.02,WeatherDisplay:10.37,2013-08-09 11:34:00,
2013-08-09 07:39:00,68.9,67.1,29.90,North,0,0.0,0.0,94,0.00,CLR,,0.02,WeatherDisplay:10.37,2013-08-09 11:39:00,
2013-08-09 07:44:00,69.1,67.3,29.90,NE,45,0.0,1.1,94,0.00,CLR,,0.02,WeatherDisplay:10.37,2013-08-09 11:44:00,
2013-08-09 07:49:00,69.1,67.3,29.90,SSW,202,0.0,0.0,94,0.00,CLR,,0.02,WeatherDisplay:10.37,2013-08-09 11:49:00,
2013-08-09 07:54:00,69.1,67.3,29.90,South,180,1.5,1.5,94,0.00,CLR,,0.02,WeatherDisplay:10.37,2013-08-09 11:54:00,
2013-08-09 07:59:00,69.1,67.3,29.91,South,180,1.2,1.2,94,0.00,CLR,,0.02,WeatherDisplay:10.37,2013-08-09 11:59:00,
2013-08-09 08:04:00,69.1,67.3,29.91,SSE,158,0.3,1.1,94,0.00,CLR,,0.02,WeatherDisplay:10.37,2013-08-09 12:04:00,
2013-08-09 08:09:00,69.1,67.3,29.91,South,180,0.0,0.0,94,0.00,CLR,,0.02,WeatherDisplay:10.37,2013-08-09 12:09:00,
2013-08-09 08:14:00,69.1,67.3,29.91,South,180,3.1,3.1,94,0.00,CLR,,0.02,WeatherDisplay:10.37,2013-08-09 12:14:00,
2013-08-09 08:19:00,69.3,67.5,29.91,SSE,158,0.0,3.5,94,0.00,CLR,,0.02,WeatherDisplay:10.37,2013-08-09 12:19:00,
2013-08-09 08:24:00,69.3,67.5,29.91,SSE,158,1.5,1.5,94,0.00,CLR,,0.02,WeatherDisplay:10.37,2013-08-09 12:24:00,
2013-08-09 08:30:00,69.3,67.5,29.91,South,188,0.0,1.0,94,0.00,CLR,CLR,0.02,WeatherDisplay:10.37,2013-08-09 12:30:00,
2013-08-09 08:35:00,69.4,67.6,29.91,WNW,292,0.6,0.0,94,0.01,RA,,0.03,WeatherDisplay:10.37,2013-08-09 12:35:00,
2013-08-09 08:40:00,69.4,67.6,29.91,WNW,292,0.0,1.1,94,0.01,RA,,0.03,WeatherDisplay:10.37,2013-08-09 12:40:00,
2013-08-09 08:45:00,69.4,67.6,29.91,SW,225,0.3,0.3,94,0.01,CLR,,0.03,WeatherDisplay:10.37,2013-08-09 12:45:00,
2013-08-09 08:50:00,69.4,67.6,29.91,ESE,112,0.3,0.3,94,0.02,RA,,0.04,WeatherDisplay:10.37,2013-08-09 12:50:00,
2013-08-09 08:55:00,69.4,67.6,29.90,WSW,248,0.6,1.1,94,0.02,RA,,0.04,WeatherDisplay:10.37,2013-08-09 12:55:00,
2013-08-09 09:00:00,69.4,67.6,29.90,SSW,202,0.0,0.0,94,0.02,CLR,,0.04,WeatherDisplay:10.37,2013-08-09 13:00:00,
2013-08-09 09:05:00,69.4,67.6,29.90,NW,315,0.3,0.3,94,0.02,CLR,,0.04,WeatherDisplay:10.37,2013-08-09 13:05:00,
2013-08-09 09:10:00,69.4,67.6,29.90,WNW,292,0.6,1.1,94,0.02,CLR,,0.04,WeatherDisplay:10.37,2013-08-09 13:10:00,
2013-08-09 09:15:00,69.6,67.8,29.90,WSW,248,0.6,1.1,94,0.02,CLR,,0.04,WeatherDisplay:10.37,2013-08-09 13:15:00,
2013-08-09 09:20:00,69.8,68.0,29.90,West,270,0.0,0.0,94,0.02,CLR,,0.04,WeatherDisplay:10.37,2013-08-09 13:20:00,
2013-08-09 09:25:00,69.8,68.0,29.90,WSW,248,0.3,0.3,94,0.02,CLR,,0.04,WeatherDisplay:10.37,2013-08-09 13:25:00,
2013-08-09 09:30:00,70.0,68.2,29.90,WNW,292,1.8,2.3,94,0.02,CLR,,0.04,WeatherDisplay:10.37,2013-08-09 13:30:00,
2013-08-09 09:35:00,70.2,68.4,29.90,NNE,22,1.5,1.5,94,0.01,CLR,,0.04,WeatherDisplay:10.37,2013-08-09 13:35:00,
2013-08-09 09:40:00,70.5,68.7,29.90,West,270,0.0,1.1,94,0.01,CLR,,0.04,WeatherDisplay:10.37,2013-08-09 13:40:00,
2013-08-09 09:45:00,70.5,68.7,29.90,West,270,1.2,1.2,94,0.01,CLR,,0.04,WeatherDisplay:10.37,2013-08-09 13:45:00,
2013-08-09 09:50:00,70.7,68.9,29.91,WSW,248,2.1,2.3,94,0.00,CLR,,0.04,WeatherDisplay:10.37,2013-08-09 13:50:00,
2013-08-09 09:55:00,70.9,69.1,29.91,NNW,338,1.5,1.5,94,0.00,CLR,,0.04,WeatherDisplay:10.37,2013-08-09 13:55:00,
2013-08-09 10:00:00,71.1,68.9,29.91,West,270,1.8,2.3,93,0.00,CLR,,0.04,WeatherDisplay:10.37,2013-08-09 14:00:00,
2013-08-09 10:05:00,71.2,69.4,29.91,West,270,3.7,3.7,94,0.00,CLR,,0.04,WeatherDisplay:10.37,2013-08-09 14:05:00,
2013-08-09 10:10:00,71.4,69.3,29.91,WNW,292,1.5,1.5,93,0.00,CLR,,0.04,WeatherDisplay:10.37,2013-08-09 14:10:00,
2013-08-09 10:15:00,71.4,69.3,29.90,WSW,248,1.8,2.3,93,0.00,CLR,,0.04,WeatherDisplay:10.37,2013-08-09 14:15:00,
2013-08-09 10:20:00,71.4,69.3,29.91,West,270,2.8,2.8,93,0.00,CLR,,0.04,WeatherDisplay:10.37,2013-08-09 14:20:00,
2013-08-09 10:25:00,71.6,69.5,29.91,West,270,4.6,4.6,93,0.00,CLR,,0.04,WeatherDisplay:10.37,2013-08-09 14:25:00,
2013-08-09 10:30:00,71.4,69.3,29.91,WNW,292,0.9,2.3,93,0.00,CLR,,0.04,WeatherDisplay:10.37,2013-08-09 14:30:00,
2013-08-09 10:36:00,71.2,69.1,29.91,West,270,0.9,2.3,93,0.00,CLR,,0.04,WeatherDisplay:10.37,2013-08-09 14:36:00,
2013-08-09 10:41:00,71.2,68.8,29.91,West,270,1.8,2.3,92,0.01,RA,,0.05,WeatherDisplay:10.37,2013-08-09 14:41:00,
2013-08-09 10:46:00,71.4,69.0,29.91,West,270,2.4,2.4,92,0.01,RA,,0.05,WeatherDisplay:10.37,2013-08-09 14:46:00,
2013-08-09 10:51:00,71.2,68.8,29.91,West,270,2.4,2.4,92,0.01,,,0.05,WeatherDisplay:10.37,2013-08-09 14:51:00,
2013-08-09 10:56:00,71.2,68.8,29.91,West,270,1.5,1.5,92,0.04,RA,,0.08,WeatherDisplay:10.37,2013-08-09 14:56:00,
2013-08-09 11:01:00,71.2,68.8,29.91,WSW,248,2.4,2.4,92,0.04,RA,,0.08,WeatherDisplay:10.37,2013-08-09 15:01:00,
2013-08-09 11:06:00,71.2,68.8,29.91,West,270,1.5,2.3,92,0.04,,,0.08,WeatherDisplay:10.37,2013-08-09 15:06:00,
2013-08-09 11:11:00,71.2,68.8,29.91,South,180,1.5,1.5,92,0.05,RA,,0.09,WeatherDisplay:10.37,2013-08-09 15:11:00,
2013-08-09 11:16:00,71.4,69.0,29.91,WSW,248,2.5,2.5,92,0.05,RA,,0.09,WeatherDisplay:10.37,2013-08-09 15:16:00,
2013-08-09 11:22:00,71.4,69.0,29.91,WSW,248,1.5,1.5,92,0.05,CLR,,0.09,WeatherDisplay:10.37,2013-08-09 15:22:00,
2013-08-09 11:27:00,71.2,68.8,29.91,West,270,0.6,1.1,92,0.05,CLR,,0.09,WeatherDisplay:10.37,2013-08-09 15:27:00,
2013-08-09 11:32:00,71.2,68.8,29.91,West,270,1.5,1.5,92,0.05,CLR,,0.09,WeatherDisplay:10.37,2013-08-09 15:32:00,
2013-08-09 11:38:00,71.2,68.8,29.91,South,180,0.0,2.3,92,0.06,RA,,0.10,WeatherDisplay:10.37,2013-08-09 15:38:00,
2013-08-09 11:43:00,71.6,69.2,29.91,West,270,2.5,2.5,92,0.05,RA,,0.10,WeatherDisplay:10.37,2013-08-09 15:43:00,
2013-08-09 11:48:00,71.6,69.2,29.90,West,270,2.1,2.3,92,0.05,CLR,,0.10,WeatherDisplay:10.37,2013-08-09 15:48:00,
2013-08-09 11:53:00,71.6,69.2,29.90,WNW,292,1.2,1.2,92,0.04,CLR,,0.10,WeatherDisplay:10.37,2013-08-09 15:53:00,
2013-08-09 11:58:00,71.6,69.2,29.90,West,270,2.4,2.4,92,0.02,CLR,,0.10,WeatherDisplay:10.37,2013-08-09 15:58:00,
2013-08-09 12:03:00,71.8,69.3,29.90,WSW,248,2.4,2.4,92,0.02,CLR,,0.10,WeatherDisplay:10.37,2013-08-09 16:03:00,
2013-08-09 12:08:00,71.6,68.8,29.90,West,270,3.1,3.5,91,0.02,CLR,,0.10,WeatherDisplay:10.37,2013-08-09 16:08:00,
2013-08-09 12:14:00,71.6,68.8,29.91,NW,315,3.7,3.7,91,0.01,CLR,,0.10,WeatherDisplay:10.37,2013-08-09 16:14:00,
2013-08-09 12:19:00,71.8,69.0,29.91,NNW,338,1.8,2.3,91,0.01,CLR,,0.10,WeatherDisplay:10.37,2013-08-09 16:19:00,
2013-08-09 12:24:00,71.8,69.0,29.91,NW,315,2.8,2.8,91,0.01,CLR,,0.10,WeatherDisplay:10.37,2013-08-09 16:24:00,
2013-08-09 12:29:00,72.0,69.2,29.91,West,270,0.3,3.5,91,0.01,CLR,,0.10,WeatherDisplay:10.37,2013-08-09 16:29:00,
2013-08-09 12:34:00,72.0,69.2,29.91,NNW,338,0.6,1.1,91,0.00,CLR,,0.10,WeatherDisplay:10.37,2013-08-09 16:34:00,
2013-08-09 12:39:00,71.8,69.0,29.91,West,270,4.3,4.6,91,0.00,CLR,,0.10,WeatherDisplay:10.37,2013-08-09 16:39:00,
2013-08-09 12:44:00,71.8,68.7,29.90,West,270,3.1,3.5,90,0.00,CLR,,0.10,WeatherDisplay:10.37,2013-08-09 16:44:00,
2013-08-09 12:49:00,72.1,69.0,29.90,NW,315,2.8,2.8,90,0.00,CLR,,0.10,WeatherDisplay:10.37,2013-08-09 16:49:00,
2013-08-09 12:54:00,72.5,69.1,29.90,WNW,292,6.1,6.1,89,0.00,CLR,,0.10,WeatherDisplay:10.37,2013-08-09 16:54:00,
2013-08-09 12:59:00,72.7,69.2,29.90,WSW,248,1.8,2.3,89,0.00,CLR,,0.10,WeatherDisplay:10.37,2013-08-09 16:59:00,
2013-08-09 13:04:00,73.0,69.9,29.90,South,180,1.5,2.3,90,0.00,CLR,,0.10,WeatherDisplay:10.37,2013-08-09 17:04:00,
2013-08-09 13:09:00,73.6,70.8,29.90,WSW,248,2.4,2.4,91,0.00,CLR,,0.10,WeatherDisplay:10.37,2013-08-09 17:09:00,
2013-08-09 13:14:00,74.1,70.7,29.90,SW,225,3.1,3.5,89,0.00,CLR,,0.10,WeatherDisplay:10.37,2013-08-09 17:14:00,
2013-08-09 13:19:00,74.5,70.7,29.90,WSW,248,2.1,5.8,88,0.00,CLR,,0.10,WeatherDisplay:10.37,2013-08-09 17:19:00,
2013-08-09 13:24:00,74.5,70.7,29.89,West,270,3.1,3.5,88,0.00,CLR,,0.10,WeatherDisplay:10.37,2013-08-09 17:24:00,
2013-08-09 13:29:00,74.5,70.0,29.89,WSW,248,3.7,3.7,86,0.00,CLR,,0.10,WeatherDisplay:10.37,2013-08-09 17:29:00,
2013-08-09 13:34:00,74.1,69.3,29.89,WSW,248,4.9,4.9,85,0.00,CLR,,0.10,WeatherDisplay:10.37,2013-08-09 17:34:00,
2013-08-09 13:39:00,74.3,69.8,29.90,NW,315,2.8,2.8,86,0.00,CLR,,0.10,WeatherDisplay:10.37,2013-08-09 17:39:00,
2013-08-09 13:44:00,75.2,70.7,29.90,West,270,3.1,5.8,86,0.00,CLR,,0.10,WeatherDisplay:10.37,2013-08-09 17:44:00,
2013-08-09 13:49:00,76.1,71.3,29.90,West,270,7.0,7.0,85,0.00,CLR,,0.10,WeatherDisplay:10.37,2013-08-09 17:49:00,
2013-08-09 13:54:00,76.1,70.2,29.90,WSW,248,3.7,3.7,82,0.00,CLR,,0.10,WeatherDisplay:10.37,2013-08-09 17:54:00,
2013-08-09 13:59:00,75.9,69.7,29.90,WSW,248,3.1,3.5,81,0.00,CLR,,0.10,WeatherDisplay:10.37,2013-08-09 17:59:00,
2013-08-09 14:04:00,75.7,70.2,29.89,WSW,248,5.8,5.8,83,0.00,CLR,,0.10,WeatherDisplay:10.37,2013-08-09 18:04:00,
2013-08-09 14:09:00,76.6,71.1,29.89,West,270,4.3,5.8,83,0.00,CLR,,0.10,WeatherDisplay:10.37,2013-08-09 18:09:00,
2013-08-09 14:14:00,76.6,70.4,29.89,West,270,7.0,7.0,81,0.00,CLR,,0.10,WeatherDisplay:10.37,2013-08-09 18:14:00,
2013-08-09 14:19:00,76.6,70.7,29.90,West,270,4.6,4.6,82,0.00,CLR,,0.10,WeatherDisplay:10.37,2013-08-09 18:19:00,
2013-08-09 14:24:00,76.1,70.2,29.90,WSW,248,4.6,4.6,82,0.00,CLR,,0.10,WeatherDisplay:10.37,2013-08-09 18:24:00,
2013-08-09 14:29:00,75.7,70.2,29.90,NNW,338,1.5,4.6,83,0.00,CLR,,0.10,WeatherDisplay:10.37,2013-08-09 18:29:00,
2013-08-09 14:34:00,75.2,70.0,29.91,West,270,9.9,10.4,84,0.02,RA,,0.12,WeatherDisplay:10.37,2013-08-09 18:34:00,
2013-08-09 14:39:00,73.9,69.1,29.91,NNE,22,3.7,4.6,85,0.04,RA,,0.15,WeatherDisplay:10.37,2013-08-09 18:39:00,
2013-08-09 14:44:00,73.0,68.9,29.91,NW,315,1.5,3.5,87,0.05,RA,,0.15,WeatherDisplay:10.37,2013-08-09 18:44:00,
2013-08-09 14:49:00,72.5,68.4,29.92,WNW,292,3.7,3.7,87,0.06,RA,,0.16,WeatherDisplay:10.37,2013-08-09 18:49:00,
2013-08-09 14:54:00,72.1,68.4,29.92,NW,315,6.4,6.9,88,0.07,RA,,0.17,WeatherDisplay:10.37,2013-08-09 18:54:00,
2013-08-09 15:00:00,72.1,68.4,29.92,NW,320,2.0,7.0,88,0.07,RA,RA,0.17,WeatherDisplay:10.37,2013-08-09 19:00:00,
2013-08-09 15:05:00,71.6,67.9,29.92,NW,315,1.5,5.8,88,0.09,RA,,0.20,WeatherDisplay:10.37,2013-08-09 19:05:00,
2013-08-09 15:10:00,71.4,68.0,29.92,West,270,3.1,3.1,89,0.10,RA,,0.21,WeatherDisplay:10.37,2013-08-09 19:10:00,
2013-08-09 15:15:00,71.2,67.8,29.92,West,270,1.8,3.5,89,0.11,RA,,0.21,WeatherDisplay:10.37,2013-08-09 19:15:00,
2013-08-09 15:20:00,71.2,67.8,29.92,NW,315,2.4,2.4,89,0.11,RA,,0.21,WeatherDisplay:10.37,2013-08-09 19:20:00,
2013-08-09 15:25:00,71.2,67.8,29.91,West,270,0.6,1.1,89,0.11,CLR,,0.21,WeatherDisplay:10.37,2013-08-09 19:25:00,
2013-08-09 15:30:00,71.1,68.0,29.91,West,270,0.9,2.3,90,0.12,RA,,0.23,WeatherDisplay:10.37,2013-08-09 19:30:00,
2013-08-09 15:35:00,71.1,68.0,29.92,WNW,292,3.4,3.5,90,0.12,RA,,0.24,WeatherDisplay:10.37,2013-08-09 19:35:00,
2013-08-09 15:40:00,71.1,68.0,29.92,West,270,2.4,2.4,90,0.09,RA,,0.24,WeatherDisplay:10.37,2013-08-09 19:40:00,
2013-08-09 15:45:00,71.2,68.5,29.91,WNW,292,2.4,2.4,91,0.10,RA,,0.25,WeatherDisplay:10.37,2013-08-09 19:45:00,
2013-08-09 15:50:00,71.1,68.3,29.90,WSW,248,2.4,2.4,91,0.09,RA,,0.25,WeatherDisplay:10.37,2013-08-09 19:50:00,
2013-08-09 15:56:00,71.1,68.3,29.91,West,270,1.5,1.5,91,0.09,RA,,0.26,WeatherDisplay:10.37,2013-08-09 19:56:00,
2013-08-09 16:01:00,71.1,68.3,29.91,WNW,292,2.1,2.3,91,0.08,,,0.26,WeatherDisplay:10.37,2013-08-09 20:01:00,
2013-08-09 16:06:00,71.1,68.3,29.91,West,270,3.4,3.5,91,0.06,CLR,,0.26,WeatherDisplay:10.37,2013-08-09 20:06:00,
2013-08-09 16:11:00,70.9,68.1,29.91,WNW,292,1.5,1.5,91,0.05,CLR,,0.26,WeatherDisplay:10.37,2013-08-09 20:11:00,
2013-08-09 16:17:00,70.9,68.1,29.90,NW,315,1.5,1.5,91,0.05,CLR,,0.26,WeatherDisplay:10.37,2013-08-09 20:17:00,
2013-08-09 16:22:00,71.1,68.3,29.90,West,270,1.8,2.3,91,0.05,CLR,,0.26,WeatherDisplay:10.37,2013-08-09 20:22:00,
2013-08-09 16:25:00,71.2,68.5,29.90,West,270,2.4,2.4,91,0.05,CLR,,0.26,WeatherDisplay:10.37,2013-08-09 20:25:00,
2013-08-09 16:30:00,71.4,68.7,29.90,WSW,248,2.5,2.5,91,0.04,CLR,,0.26,WeatherDisplay:10.37,2013-08-09 20:30:00,
2013-08-09 16:35:00,71.6,68.8,29.90,West,270,0.3,2.3,91,0.02,CLR,,0.26,WeatherDisplay:10.37,2013-08-09 20:35:00,
2013-08-09 16:40:00,71.6,68.8,29.91,WSW,248,3.1,3.5,91,0.02,CLR,,0.26,WeatherDisplay:10.37,2013-08-09 20:40:00,
2013-08-09 16:45:00,71.6,68.8,29.91,West,270,3.1,3.5,91,0.01,CLR,,0.26,WeatherDisplay:10.37,2013-08-09 20:45:00,
2013-08-09 16:50:00,71.6,68.8,29.91,WNW,292,1.5,1.5,91,0.01,CLR,,0.26,WeatherDisplay:10.37,2013-08-09 20:50:00,
2013-08-09 16:55:00,71.6,68.8,29.90,West,270,1.2,1.2,91,0.00,CLR,,0.26,WeatherDisplay:10.37,2013-08-09 20:55:00,
2013-08-09 17:00:00,71.4,68.7,29.90,WNW,292,2.4,2.4,91,0.00,CLR,,0.26,WeatherDisplay:10.37,2013-08-09 21:00:00,
2013-08-09 17:05:00,71.2,68.5,29.91,NW,315,1.2,2.3,91,0.00,CLR,,0.26,WeatherDisplay:10.37,2013-08-09 21:05:00,
2013-08-09 17:10:00,71.2,68.5,29.91,West,270,1.5,1.5,91,0.00,CLR,,0.26,WeatherDisplay:10.37,2013-08-09 21:10:00,
2013-08-09 17:15:00,71.2,68.5,29.91,NW,315,0.9,1.1,91,0.00,CLR,,0.26,WeatherDisplay:10.37,2013-08-09 21:15:00,
2013-08-09 17:19:00,71.2,68.5,29.92,West,270,3.1,3.5,91,0.00,CLR,,0.26,WeatherDisplay:10.37,2013-08-09 21:19:00,
2013-08-09 17:24:00,71.2,68.5,29.91,West,270,3.4,3.5,91,0.00,CLR,,0.26,WeatherDisplay:10.37,2013-08-09 21:24:00,
2013-08-09 17:29:00,71.4,68.7,29.91,West,270,1.8,2.3,91,0.00,CLR,,0.26,WeatherDisplay:10.37,2013-08-09 21:29:00,
2013-08-09 17:34:00,71.4,68.7,29.92,West,270,2.4,2.4,91,0.00,CLR,,0.26,WeatherDisplay:10.37,2013-08-09 21:34:00,
2013-08-09 17:39:00,71.6,68.8,29.92,NW,315,5.2,5.8,91,0.00,CLR,,0.26,WeatherDisplay:10.37,2013-08-09 21:39:00,
2013-08-09 17:44:00,71.6,68.8,29.92,West,270,3.1,3.5,91,0.00,CLR,,0.26,WeatherDisplay:10.37,2013-08-09 21:44:00,
2013-08-09 17:49:00,71.8,69.0,29.92,West,270,3.7,3.7,91,0.00,CLR,,0.26,WeatherDisplay:10.37,2013-08-09 21:49:00,
2013-08-09 17:54:00,72.1,69.4,29.92,WNW,292,3.1,3.5,91,0.00,CLR,,0.26,WeatherDisplay:10.37,2013-08-09 21:54:00,
2013-08-09 18:00:00,72.1,69.0,29.91,NNW,328,2.0,3.0,90,0.00,CLR,CLR,0.26,WeatherDisplay:10.37,2013-08-09 22:00:00,
2013-08-09 18:05:00,72.1,69.0,29.91,NW,315,4.6,4.6,90,0.00,CLR,,0.26,WeatherDisplay:10.37,2013-08-09 22:05:00,
2013-08-09 18:10:00,72.0,68.9,29.91,WSW,248,4.6,4.6,90,0.00,CLR,,0.26,WeatherDisplay:10.37,2013-08-09 22:10:00,
2013-08-09 18:15:00,72.0,68.9,29.91,NW,315,2.4,2.4,90,0.00,CLR,,0.26,WeatherDisplay:10.37,2013-08-09 22:15:00,
2013-08-09 18:20:00,72.0,68.9,29.91,West,270,1.5,1.5,90,0.00,CLR,,0.26,WeatherDisplay:10.37,2013-08-09 22:20:00,
2013-08-09 18:25:00,72.0,68.9,29.91,West,270,3.1,3.5,90,0.00,CLR,,0.26,WeatherDisplay:10.37,2013-08-09 22:25:00,
2013-08-09 18:30:00,71.8,68.4,29.91,WNW,292,2.5,2.5,89,0.00,CLR,,0.26,WeatherDisplay:10.37,2013-08-09 22:30:00,
2013-08-09 18:35:00,71.8,68.4,29.91,NW,315,2.4,2.4,89,0.00,CLR,,0.26,WeatherDisplay:10.37,2013-08-09 22:35:00,
2013-08-09 18:40:00,71.8,68.7,29.90,NW,315,0.6,1.1,90,0.00,CLR,,0.26,WeatherDisplay:10.37,2013-08-09 22:40:00,
2013-08-09 18:45:00,71.8,68.4,29.91,NW,315,2.5,2.5,89,0.00,CLR,,0.26,WeatherDisplay:10.37,2013-08-09 22:45:00,
2013-08-09 18:50:00,71.6,68.5,29.91,NNW,338,3.1,5.8,90,0.00,CLR,,0.26,WeatherDisplay:10.37,2013-08-09 22:50:00,
2013-08-09 18:55:00,71.6,68.2,29.91,WNW,292,4.0,5.8,89,0.00,CLR,,0.26,WeatherDisplay:10.37,2013-08-09 22:55:00,
2013-08-09 19:00:00,71.4,68.0,29.91,NW,315,4.3,4.6,89,0.00,CLR,,0.26,WeatherDisplay:10.37,2013-08-09 23:00:00,
2013-08-09 19:05:00,71.2,67.5,29.92,West,270,2.4,3.5,88,0.00,CLR,,0.26,WeatherDisplay:10.37,2013-08-09 23:05:00,
2013-08-09 19:10:00,71.2,67.5,29.91,WNW,292,2.5,3.5,88,0.00,CLR,,0.26,WeatherDisplay:10.37,2013-08-09 23:10:00,
2013-08-09 19:15:00,71.1,67.3,29.92,NW,315,2.5,3.5,88,0.00,CLR,,0.26,WeatherDisplay:10.37,2013-08-09 23:15:00,
2013-08-09 19:20:00,71.1,67.3,29.92,NW,315,3.7,4.6,88,0.00,CLR,,0.26,WeatherDisplay:10.37,2013-08-09 23:20:00,
2013-08-09 19:25:00,70.9,67.1,29.92,NW,315,4.3,4.3,88,0.00,CLR,,0.26,WeatherDisplay:10.37,2013-08-09 23:25:00,
2013-08-09 19:30:00,70.9,67.1,29.92,WSW,248,5.2,5.8,88,0.00,CLR,,0.26,WeatherDisplay:10.37,2013-08-09 23:30:00,
2013-08-09 19:35:00,70.9,67.1,29.93,North,0,4.3,4.6,88,0.00,CLR,,0.26,WeatherDisplay:10.37,2013-08-09 23:35:00,
2013-08-09 19:40:00,70.7,67.0,29.92,WNW,292,4.3,4.6,88,0.00,CLR,,0.26,WeatherDisplay:10.37,2013-08-09 23:40:00,
2013-08-09 19:45:00,70.3,66.6,29.93,WNW,292,6.7,6.9,88,0.00,CLR,,0.26,WeatherDisplay:10.37,2013-08-09 23:45:00,
2013-08-09 19:50:00,70.3,66.6,29.93,NW,315,6.7,6.9,88,0.00,CLR,,0.26,WeatherDisplay:10.37,2013-08-09 23:50:00,
2013-08-09 19:55:00,70.2,66.4,29.92,NW,315,1.8,2.3,88,0.00,CLR,,0.26,WeatherDisplay:10.37,2013-08-09 23:55:00,
2013-08-09 20:00:00,70.2,66.4,29.92,NW,315,2.8,3.5,88,0.00,CLR,,0.26,WeatherDisplay:10.37,2013-08-10 00:00:00,
2013-08-09 20:05:00,70.0,66.3,29.92,NW,315,0.6,1.1,88,0.00,CLR,,0.26,WeatherDisplay:10.37,2013-08-10 00:05:00,
2013-08-09 20:10:00,69.8,66.1,29.92,NW,315,1.5,1.5,88,0.00,CLR,,0.26,WeatherDisplay:10.37,2013-08-10 00:10:00,
2013-08-09 20:15:00,69.8,66.1,29.92,WNW,292,3.7,3.7,88,0.00,CLR,,0.26,WeatherDisplay:10.37,2013-08-10 00:15:00,
2013-08-09 20:20:00,69.6,65.9,29.92,WNW,292,1.5,2.3,88,0.00,CLR,,0.26,WeatherDisplay:10.37,2013-08-10 00:20:00,
2013-08-09 20:25:00,69.4,65.7,29.93,NW,315,0.3,2.3,88,0.00,CLR,,0.26,WeatherDisplay:10.37,2013-08-10 00:25:00,
2013-08-09 20:30:00,69.3,65.6,29.93,NW,315,0.6,2.3,88,0.00,CLR,,0.26,WeatherDisplay:10.37,2013-08-10 00:30:00,
2013-08-09 20:35:00,69.1,65.4,29.93,West,270,1.5,1.5,88,0.00,CLR,,0.26,WeatherDisplay:10.37,2013-08-10 00:35:00,
2013-08-09 20:40:00,69.1,65.4,29.93,West,270,0.0,0.0,88,0.00,CLR,,0.26,WeatherDisplay:10.37,2013-08-10 00:40:00,
2013-08-09 20:45:00,69.1,65.4,29.94,West,270,0.0,0.0,88,0.00,CLR,,0.26,WeatherDisplay:10.37,2013-08-10 00:45:00,
2013-08-09 20:50:00,68.7,65.0,29.93,West,270,0.0,0.0,88,0.00,CLR,,0.26,WeatherDisplay:10.37,2013-08-10 00:50:00,
2013-08-09 20:55:00,68.7,65.0,29.93,West,270,0.0,0.0,88,0.00,CLR,,0.26,WeatherDisplay:10.37,2013-08-10 00:55:00,
2013-08-09 21:00:00,68.5,64.8,29.94,West,270,0.0,0.0,88,0.00,CLR,,0.26,WeatherDisplay:10.37,2013-08-10 01:00:00,
2013-08-09 21:05:00,68.4,65.0,29.94,West,270,0.0,0.0,89,0.00,CLR,,0.26,WeatherDisplay:10.37,2013-08-10 01:05:00,
2013-08-09 21:10:00,68.2,64.8,29.94,West,270,0.0,0.0,89,0.00,CLR,,0.26,WeatherDisplay:10.37,2013-08-10 01:10:00,
2013-08-09 21:15:00,68.0,64.6,29.95,West,270,0.0,0.0,89,0.00,CLR,,0.26,WeatherDisplay:10.37,2013-08-10 01:15:00,
2013-08-09 21:20:00,68.0,64.6,29.95,SW,225,0.3,0.0,89,0.00,CLR,,0.26,WeatherDisplay:10.37,2013-08-10 01:20:00,
2013-08-09 21:25:00,68.0,64.6,29.96,SW,225,0.0,0.0,89,0.00,CLR,,0.26,WeatherDisplay:10.37,2013-08-10 01:25:00,
2013-08-09 21:30:00,67.8,64.5,29.96,SW,225,0.0,0.0,89,0.00,CLR,,0.26,WeatherDisplay:10.37,2013-08-10 01:30:00,
2013-08-09 21:35:00,67.6,64.3,29.97,SW,225,0.0,0.0,89,0.00,CLR,,0.26,WeatherDisplay:10.37,2013-08-10 01:35:00,
2013-08-09 21:40:00,67.6,64.3,29.97,SW,225,0.0,0.0,89,0.00,CLR,,0.26,WeatherDisplay:10.37,2013-08-10 01:40:00,
2013-08-09 21:45:00,67.5,64.4,29.97,SW,225,0.0,0.0,90,0.00,CLR,,0.26,WeatherDisplay:10.37,2013-08-10 01:45:00,
2013-08-09 21:50:00,67.5,64.4,29.98,SW,225,0.0,0.0,90,0.00,CLR,,0.26,WeatherDisplay:10.37,2013-08-10 01:50:00,
2013-08-09 21:55:00,67.3,64.2,29.98,SW,225,0.0,0.0,90,0.00,CLR,,0.26,WeatherDisplay:10.37,2013-08-10 01:55:00,
2013-08-09 22:00:00,67.3,64.2,29.98,SW,225,0.0,0.0,90,0.00,CLR,,0.26,WeatherDisplay:10.37,2013-08-10 02:00:00,
2013-08-09 22:06:00,67.3,64.2,29.98,SW,225,0.0,0.0,90,0.00,CLR,,0.26,WeatherDisplay:10.37,2013-08-10 02:06:00,
2013-08-09 22:11:00,67.3,64.2,29.98,SW,225,0.0,0.0,90,0.00,CLR,,0.26,WeatherDisplay:10.37,2013-08-10 02:11:00,
2013-08-09 22:16:00,67.3,64.2,29.98,SW,225,0.0,0.0,90,0.00,CLR,,0.26,WeatherDisplay:10.37,2013-08-10 02:16:00,
2013-08-09 22:21:00,67.1,64.1,29.98,West,270,1.2,1.2,90,0.00,CLR,,0.26,WeatherDisplay:10.37,2013-08-10 02:21:00,
2013-08-09 22:26:00,66.9,63.9,29.98,WNW,292,0.6,2.3,90,0.00,CLR,,0.26,WeatherDisplay:10.37,2013-08-10 02:26:00,
2013-08-09 22:31:00,66.9,63.9,29.98,WNW,292,0.9,1.1,90,0.00,CLR,,0.26,WeatherDisplay:10.37,2013-08-10 02:31:00,
2013-08-09 22:36:00,66.7,63.7,29.98,NNW,338,0.6,1.1,90,0.00,CLR,,0.26,WeatherDisplay:10.37,2013-08-10 02:36:00,
2013-08-09 22:41:00,66.7,63.7,29.98,NW,315,0.9,1.1,90,0.00,CLR,,0.26,WeatherDisplay:10.37,2013-08-10 02:41:00,
2013-08-09 22:46:00,66.6,63.9,29.99,NW,315,0.9,1.1,91,0.00,CLR,,0.26,WeatherDisplay:10.37,2013-08-10 02:46:00,
2013-08-09 22:51:00,66.6,63.9,29.99,NW,315,0.3,1.1,91,0.00,CLR,,0.26,WeatherDisplay:10.37,2013-08-10 02:51:00,
2013-08-09 22:56:00,66.6,63.9,29.98,West,270,0.0,1.1,91,0.00,CLR,,0.26,WeatherDisplay:10.37,2013-08-10 02:56:00,
2013-08-09 23:02:00,66.6,63.9,29.99,West,270,0.6,1.1,91,0.00,CLR,,0.26,WeatherDisplay:10.37,2013-08-10 03:02:00,
2013-08-09 23:07:00,66.6,63.9,29.99,West,270,0.0,0.0,91,0.00,CLR,,0.26,WeatherDisplay:10.37,2013-08-10 03:07:00,
2013-08-09 23:12:00,66.6,63.9,29.99,West,270,0.0,0.0,91,0.00,CLR,,0.26,WeatherDisplay:10.37,2013-08-10 03:12:00,
2013-08-09 23:17:00,66.4,63.7,29.99,West,270,0.0,0.0,91,0.00,CLR,,0.26,WeatherDisplay:10.37,2013-08-10 03:17:00,
2013-08-09 23:22:00,66.4,63.7,29.99,West,270,0.0,0.0,91,0.00,CLR,,0.26,WeatherDisplay:10.37,2013-08-10 03:22:00,
2013-08-09 23:27:00,66.4,63.7,30.00,West,270,0.6,1.1,91,0.00,CLR,,0.26,WeatherDisplay:10.37,2013-08-10 03:27:00,
2013-08-09 23:32:00,66.4,63.7,30.00,West,270,0.0,0.0,91,0.00,CLR,,0.26,WeatherDisplay:10.37,2013-08-10 03:32:00,
2013-08-09 23:37:00,66.2,63.5,30.00,West,270,0.0,0.0,91,0.00,CLR,,0.26,WeatherDisplay:10.37,2013-08-10 03:37:00,
2013-08-09 23:42:00,66.2,63.5,30.00,West,270,0.0,0.0,91,0.00,CLR,,0.26,WeatherDisplay:10.37,2013-08-10 03:42:00,
2013-08-09 23:47:00,66.2,63.5,30.00,West,270,0.6,1.1,91,0.00,CLR,,0.26,WeatherDisplay:10.37,2013-08-10 03:47:00,
2013-08-09 23:53:00,66.0,63.3,30.00,West,270,1.5,1.5,91,0.00,CLR,,0.26,WeatherDisplay:10.37,2013-08-10 03:53:00,
2013-08-09 23:58:00,66.0,63.3,30.00,West,270,0.0,0.0,91,0.00,CLR,,0.26,WeatherDisplay:10.37,2013-08-10 03:58:00,